Location: Hermaringen
(48.5952°N, 10.2585°E)
Time: 05:51:29
(UTC+00:00)

Transit 2A - Pass Details

Date: 25 February 2026
Orbit: 590 x 954 km, 66.7° (Epoch: 14 March)

Event Time Altitude Azimuth Distance (km) Brightness Sun altitude
Rises 17:39:51 0° 325° (NW) 3,593 9.9 -8.0°
Reaches altitude 10° 17:42:36 10° 331° (NNW) 2,613 9.1 -8.4°
Maximum altitude 17:48:26 46° 44° (NE) 1,156 6.6 -9.4°
Drops below altitude 10° 17:53:46 10° 117° (ESE) 2,391 8.0 -10.2°
Enters shadow 17:54:04 - 119° (ESE) 2,493 8.1 -10.3°
